Regional Weather Roundup
Issued by NWS

Home | Current Version | Previous Version | Graphics & Text | Print | Product List | Glossary On
Versions: 1 2 3 4 5 6 7 8 9 10 11 12 13 14 15 16 17 18 19 20 21 22 23 24 25 26 27 28 29 30 31 32 33 34 35 36 37 38 39 40 41 42 43 44 45 46 47 48 49 50
000
ASUS45 KTFX 032110
RWRMT
MONTANA REGIONAL WEATHER ROUNDUP
NATIONAL WEATHER SERVICE GREAT FALLS MT
300 PM MDT THU SEP 03 2015

NOTE: "FAIR" INDICATES FEW OR NO CLOUDS BELOW 12000 FEET WITH NO
SIGNIFICANT WEATHER AND/OR OBSTRUCTIONS TO VISIBILITY.

MTZ001>007-043-032200-
WEST OF THE DIVIDE

CITY           SKY/WX    TMP DP  RH WIND       PRES   REMARKS
KALISPELL      MOCLDY    59  44  57 SE16      29.93S
MISSOULA       LGT RAIN  52  45  77 CALM      29.99R
BUTTE          CLOUDY    56  40  55 NE6       29.94S
MULLAN PASS    LGT RAIN  41  36  82 CALM      29.99S
DEER LODGE       N/A     61  41  48 NW12G21   29.94F
EUREKA           N/A     59  39  47 W6        29.94
HAMILTON         N/A     50  46  87 NE5       29.98S
LIBBY            N/A     64  36  34 CALM      29.90S
$$

MTZ008-052>055-032200-
SOUTHWEST MONTANA

CITY           SKY/WX    TMP DP  RH WIND       PRES   REMARKS
BOZEMAN        PTSUNNY   72  41  32 W6        29.82F
DILLON         PTSUNNY   66  38  35 N5        29.86F
W YELLOWSTONE  MOSUNNY   73  32  21 SW21G33   29.95S
$$

MTZ009-010-012-014-046-048-049-054-032200-
EAST SLOPES AND CENTRAL MONTANA

CITY           SKY/WX    TMP DP  RH WIND       PRES   REMARKS
CUT BANK       LGT RAIN  52  43  71 NW3       29.95S
GREAT FALLS    CLOUDY    62  39  42 NE14      29.92S
MALMSTROM AFB  PTSUNNY   61  40  46 N12G21    29.92R
HELENA         CLOUDY    62  39  42 N9        29.89F
CONRAD           N/A     57  50  78 W5        29.98F
$$

MTZ011-013-016-021-045-047-050-051-032200-
NORTH CENTRAL MONTANA

CITY           SKY/WX    TMP DP  RH WIND       PRES   REMARKS
HAVRE          CLOUDY    65  42  43 N13       29.88F
LEWISTOWN        N/A     74  38  27 MISG      29.88F
N BAR RANCH      N/A     70  37  30 NE12G17   29.91F
CHINOOK          N/A     66  43  42 N8        29.88F
FORT BENTON      N/A     64  39  39 N8        29.90F
$$

MTZ017>020-022>027-061-062-032200-
NORTHEAST MONTANA

CITY           SKY/WX    TMP DP  RH WIND       PRES   REMARKS
GLASGOW        MOSUNNY   82  40  22 N9G21     29.78F
JORDAN           N/A     77  43  29 N12       29.80F
SIDNEY         CLOUDY    86  48  26 N14         N/A
WOLF POINT     MOSUNNY   85  45  24 NE16G30   29.75F
MALTA            N/A     78  39  24 N5        29.80F
PLENTYWOOD       N/A     79  45  29 N21       29.75S
POPLAR           N/A     81  45  28 N9G18     29.76R
$$

MTZ028>42-056>058-032200-
SOUTHCENTRAL AND SOUTHEAST MONTANA

CITY           SKY/WX    TMP DP  RH WIND       PRES   REMARKS
BAKER          MOSUNNY   89  46  22 NE3       29.76F
BILLINGS       PTSUNNY   75  37  25 NE15      29.81F
LIVINGSTON     MOSUNNY   77  38  24 E20G26    29.81F
MILES CITY     PTSUNNY   83  45  26 VRB3      29.75S
EKALAKA          N/A     83  42  23 N6        29.80F
FORSYTH          N/A     82  39  21 W5        29.75F
LAUREL           N/A     77  37  23 NE10      29.83S
$$

REGIONAL REPORTS...DAKOTAS

CITY           SKY/WX    TMP DP  RH WIND       PRES   REMARKS
WILLISTON      MOSUNNY   84  49  29 N18       29.70F
MINOT          PTSUNNY   94  61  33 VRB7      29.63F HX  94
DICKINSON      SUNNY     90  53  28 NW10      29.71S
CROSBY           N/A     82  54  36 N18       29.71F
BISMARCK       PTSUNNY  100  62  28 S12       29.65F HX 101
GRAND FORKS    MOSUNNY   92  71  50 S22G31    29.69F HX  98
FARGO          SUNNY     93  71  48 S17G26    29.74F HX 100
BUFFALO SD       N/A     84  47  27 N6        29.71F
RAPID CITY     PTSUNNY   96  49  20 S10G22    29.74F HX  93
$$

REGIONAL REPORTS...WYOMING/IDAHO/WASHINGTON

CITY           SKY/WX    TMP DP  RH WIND       PRES   REMARKS
GILLETTE       PTSUNNY   91  40  16 SE9       29.81F
SHERIDAN       PTSUNNY   86  40  19 VRB6      29.79F
BUFFALO WY     MOSUNNY   91  38  15 SE12G18   29.84F
CODY           PTSUNNY   73  43  33 N7        29.83F
YELLOWSTONE LA   N/A     68  36  30 VRB6G17   30.05F
IDAHO FALLS    MOSUNNY   80  36  20 S13G23    29.86F
SALMON           N/A     66  46  48 SW3       29.81F
BOISE            N/A     66  42  41 NW17G24   29.90F
SPOKANE        PTSUNNY   64  33  31 S12G18    29.93F
$$

REGIONAL REPORTS...ALBERTA

CITY           SKY/WX    TMP DP  RH WIND       PRES   REMARKS
EDMONTON       MOSUNNY   57  37  47 NW7G18    29.95F
CALGARY        LGT RAIN  54  41  62 SE9       29.93F
LETHBRIDGE     PTSUNNY   61  41  48 S5        29.91F
MEDICINE HAT   CLOUDY    55  48  76 CALM      29.95R
WATERTON GATE    N/A     55  39  54 SW5         N/A
CARDSTON         N/A     57  39  51 N1          N/A
MILK RIVER       N/A     54  46  76 S5          N/A
$$

REGIONAL REPORTS...SASKATCHEWAN

CITY           SKY/WX    TMP DP  RH WIND       PRES   REMARKS
SWIFT CURRENT  SUNNY     64  41  42 N16       29.92R
REGINA         MOSUNNY   72  46  40 N18G30    29.80F
SASKATOON      PTSUNNY   59  46  63 NW12      29.93S
CYPRESS HILLS    N/A     59  36  41 N5          N/A
ROCKGLEN         N/A     68  37  32 N20G25      N/A
ASSINIBOIA       N/A     61  37  41 NW9         N/A
$$



USA.gov is the U.S. government's official web portal to all federal, state and local government web resources and services.